Погода в Ясных Зорях

Россия / Белгородская область     50°22′13″N   36°30′21″E
В апреле 2022 года жителям России запретили посещать сайт meteo.paraplan.net по решению Генеральной прокуратуры. Аудитория сайта уменьшилась в 10 раз. Владельцы сайта не видят смысла в поддержке погодного сервера в таких условиях. Сайт будет закрыт в октябре.
темп.,
°C
ветер,
м/с
пор.,
м/с
влажн.,
%
обл.,
%
осадки,
мм/ч
давл.,
гПа
погр.,
м
4 октября, вт
вт400:00+11ююз714755 0.0 1008595
03:00+11ю61276100 0.0 1008585
06:00+10ю613805 0.1 1009527
09:00+11ююз6117590 0.1 1010971
12:00+12юз7106897 0.1 10111269
15:00+13зюз61056100 0.2 10131786
18:00+11юз5965100 0.0 1014748
21:00+10зюз5107498 0.1 1016713
5 октября, ср
ср500:00+8юз5107922 0.0 1017393
03:00+8юз5118199 0.0 1017450
06:00+9зюз51183100 0.1 1018684
09:00+10з6107893 0.1 1019961
12:00+11з796994 0.4 10201156
15:00+11з8106580 0.4 10211207
18:00+9зсз5107297 0.0 10231136
21:00+8зюз3677100 0.0 1024148
6 октября, чт
чт600:00+9зюз4882100 0.0 1024357
03:00+9зюз4884100 0.1 1024331
06:00+9зюз4886100 0.0 1024284
09:00+11зюз5878100 0.0 1024376
12:00+14зюз676428 0.0 1024853
15:00+16з575624 0.0 10231224
18:00+14з35676 0.0 1023108
21:00+11зюз35795 0.0 102493
7 октября, пт
пт700:00+10зюз35815 0.0 102498
03:00+9зюз35835 0.0 102478
06:00+9з348868 0.0 102462
09:00+12зсз357927 0.0 1025224
12:00+16ссз456646 0.0 1025713
15:00+18с456235 0.0 10251129
18:00+14с35745 0.0 102684
21:00+11ссв368157 0.0 1027117
8 октября, сб
сб800:00+10св35875 0.0 102795
03:00+9св34903 0.0 102769
06:00+8всв35921 0.0 102776
09:00+11в46785 0.0 1027234
12:00+16вюв34645 0.0 1025795
15:00+18вюв345834 0.0 10231271
18:00+14вюв337240 0.0 102233
21:00+12юв337759 0.0 102230